Temp
-13 -13 -12 -12 -12 -12 -12 -11 -11 -11 -12 -12 -10 -10 -11 -11 -10 -11 -11 -10 -10 -10 -10 -10 -11 -10 -10 -10 -10 -11 -11 -10 -10 -11 -10 -10 -11 -11 -11 -11 -11 -11 -11 -11
-13 -13 -13 -12 -12 -12 -12 -12 -12 -11 -12 -12 -12 -10 -11 -12 -11 -10 -10 -11 -10 -10 -10 -10 -10 -10 -10 -10 -10 -10 -11 -10 -11 -11 -11 -11 -10 -11 -11 -11 -11 -11 -11 -11
-13 -12 -12 -12 -12 -12 -12 -12 -12 -12 -12 -12 -12 -11 -11 -11 -11 -11 -10 -11 -10 -10 -10 -11 -10 -10 -11 -10 -10 -11 -11 -11 -11 -11 -11 -11 -11 -11 -11 -11 -11 -11 -11 -11
-14 -13 -13 -13 -12 -12 -12 -11 -11 -11 -12 -12 -11 -11 -10 -11 -10 -11 -10 -10 -11 -10 -10 -10 -10 -10 -11 -11 -11 -11 -11 -11 -11 -11 -11 -11 -11 -11 -11 -11 -11 -10 -11 -11
-14 -14 -13 -13 -12 -12 -12 -12 -12 -11 -11 -12 -12 -11 -10 -11 -10 -10 -10 -10 -11 -11 -11 -11 -10 -11 -11 -11 -11 -11 -11 -11 -11 -10 -11 -10 -11 -11 -11 -11 -10 -10 -11 -11
-15 -15 -14 -14 -14 -14 -13 -13 -13 -12 -13 -12 -11 -11 -10 -10 -10 -10 -10 -10 -11 -11 -11 -11 -11 -11 -11 -11 -11 -11 -12 -11 -11 -11 -11 -11 -11 -11 -11 -11 -11 -11 -11 -11
-15 -15 -14 -14 -14 -14 -13 -13 -15 -15 -14 -11 -11 -11 -10 -10 -10 -11 -11 -11 -11 -11 -11 -11 -11 -11 -11 -11 -11 -12 -11 -11 -11 -11 -11 -11 -11 -11 -11 -11 -11 -11 -11 -11
-16 -15 -14 -14 -14 -13 -14 -14 -14 -13 -12 -11 -11 -12 -10 -10 -11 -11 -10 -12 -12 -11 -11 -12 -11 -11 -11 -11 -11 -11 -11 -11 -11 -11 -11 -11 -11 -11 -11 -11 -11 -11 -11 -11
-15 -15 -15 -15 -15 -15 -15 -15 -14 -16 -14 -13 -12 -11 -11 -11 -11 -11 -11 -12 -12 -12 -12 -12 -12 -12 -11 -12 -11 -11 -11 -11 -12 -12 -11 -12 -11 -11 -11 -11 -11 -11 -12 -12
-17 -17 -17 -17 -17 -17 -16 -16 -17 -16 -15 -14 -12 -12 -11 -11 -11 -11 -12 -12 -12 -12 -13 -13 -13 -13 -12 -12 -12 -12 -12 -12 -12 -12 -12 -12 -12 -12 -12 -12 -12 -12 -12 -12
-17 -17 -17 -17 -17 -17 -17 -17 -17 -16 -17 -16 -14 -12 -11 -11 -11 -12 -13 -12 -13 -13 -13 -13 -14 -13 -13 -12 -12 -12 -12 -12 -12 -12 -12 -12 -12 -12 -12 -12 -12 -12 -13 -13
-18 -18 -18 -17 -17 -18 -18 -18 -18 -17 -16 -15 -15 -12 -11 -11 -12 -12 -14 -14 -14 -14 -13 -14 -14 -14 -13 -13 -13 -12 -12 -12 -12 -12 -12 -12 -12 -12 -12 -12 -12 -13 -13 -13
-18 -19 -19 -18 -18 -17 -17 -17 -17 -17 -17 -18 -17 -13 -14 -14 -15 -16 -15 -16 -16 -16 -15 -14 -14 -13 -13 -13 -13 -13 -13 -13 -13 -13 -13 -13 -13 -13 -13 -13 -13 -13 -14 -14
-20 -20 -20 -19 -18 -19 -18 -17 -17 -17 -18 -17 -16 -14 -14 -14 -15 -17 -17 -17 -17 -16 -15 -16 -15 -14 -14 -14 -13 -13 -13 -13 -13 -13 -13 -13 -13 -13 -13 -14 -14 -14 -15 -15
-21 -20 -19 -19 -19 -19 -19 -19 -19 -19 -18 -19 -15 -16 -14 -15 -17 -17 -18 -18 -18 -16 -16 -15 -15 -15 -14 -14 -14 -14 -14 -14 -14 -14 -14 -14 -14 -14 -14 -15 -15 -16 -15 -15
-21 -19 -19 -19 -19 -20 -20 -20 -19 -19 -19 -18 -16 -15 -15 -16 -18 -18 -18 -19 -18 -18 -16 -16 -15 -15 -14 -14 -14 -14 -14 -14 -14 -14 -14 -14 -14 -15 -15 -16 -16 -16 -16 -15
-21 -20 -20 -20 -20 -20 -20 -17 -19 -19 -18 -17 -17 -15 -17 -18 -18 -18 -19 -19 -19 -19 -18 -16 -16 -16 -15 -15 -15 -15 -15 -15 -15 -15 -15 -15 -15 -16 -16 -16 -16 -16 -16 -16
-21 -21 -21 -20 -20 -21 -17 -18 -19 -19 -19 -19 -17 -15 -17 -18 -18 -19 -19 -19 -17 -17 -18 -17 -17 -17 -17 -16 -16 -15 -15 -15 -15 -16 -16 -16 -17 -16 -16 -16 -17 -17 -17 -17
-20 -21 -21 -20 -20 -19 -18 -18 -18 -19 -18 -18 -17 -17 -18 -18 -19 -19 -18 -18 -18 -18 -18 -18 -18 -18 -18 -17 -17 -16 -16 -16 -17 -17 -17 -17 -17 -17 -17 -17 -18 -18 -18 -18
-21 -21 -21 -20 -20 -18 -16 -19 -19 -20 -15 -18 -18 -18 -18 -19 -19 -17 -19 -19 -20 -20 -19 -19 -19 -18 -18 -18 -18 -18 -18 -18 -18 -18 -18 -18 -18 -18 -17 -18 -18 -19 -19 -19
-20 -20 -20 -20 -20 -18 -17 -18 -19 -19 -16 -18 -18 -19 -19 -19 -18 -19 -19 -20 -20 -20 -19 -19 -19 -19 -19 -18 -18 -18 -18 -18 -18 -18 -18 -18 -18 -18 -19 -18 -19 -19 -19 -18
-21 -21 -20 -20 -19 -18 -18 -18 -18 -18 -19 -20 -19 -19 -20 -20 -20 -19 -19 -19 -19 -19 -19 -19 -19 -18 -19 -19 -19 -19 -19 -19 -18 -18 -18 -18 -18 -18 -19 -19 -19 -19 -18 -18
-21 -21 -21 -20 -19 -19 -19 -19 -19 -19 -20 -20 -20 -19 -19 -19 -20 -19 -19 -19 -19 -19 -19 -18 -18 -18 -18 -18 -18 -18 -18 -18 -19 -18 -18 -18 -18 -18 -18 -18 -19 -18 -19 -19
-22 -21 -21 -21 -20 -20 -20 -20 -20 -20 -20 -20 -20 -19 -19 -19 -19 -19 -20 -20 -20 -20 -19 -19 -19 -19 -19 -19 -19 -19 -19 -18 -18 -18 -18 -18 -18 -18 -19 -19 -19 -19 -19 -19
-21 -21 -21 -21 -21 -21 -21 -21 -21 -21 -21 -20 -19 -19 -19 -19 -19 -19 -19 -19 -19 -19 -19 -19 -19 -19 -19 -19 -19 -19 -19 -19 -18 -19 -18 -18 -18 -19 -19 -20 -19 -19 -19 -20
-21 -21 -21 -21 -21 -21 -21 -21 -21 -21 -20 -20 -20 -19 -19 -19 -19 -19 -19 -19 -18 -18 -18 -19 -19 -19 -18 -19 -19 -18 -18 -19 -19 -19 -19 -19 -19 -19 -19 -19 -20 -20 -20 -20
Height
5741 5749 5757 5763 5769 5773 5779 5783 5788 5794 5798 5798 5803 5805 5813 5817 5819 5827 5833 5837 5840 5846 5845 5848 5850 5854 5857 5858 5861 5861 5864 5864 5866 5867 5868 5869 5869 5869 5870 5870 5869 5869 5868 5869
5732 5743 5749 5755 5761 5766 5770 5774 5779 5783 5788 5789 5793 5796 5801 5807 5813 5818 5825 5828 5833 5836 5837 5841 5845 5849 5853 5853 5855 5858 5860 5861 5861 5862 5862 5864 5864 5864 5864 5864 5864 5864 5864 5863
5724 5733 5738 5746 5752 5759 5763 5767 5771 5774 5776 5782 5783 5785 5791 5800 5805 5810 5815 5821 5824 5828 5830 5834 5839 5843 5845 5849 5850 5852 5854 5855 5857 5857 5858 5859 5860 5859 5860 5860 5860 5859 5859 5858
5713 5721 5728 5735 5743 5749 5753 5757 5759 5762 5763 5771 5772 5775 5783 5789 5797 5804 5809 5812 5818 5822 5825 5828 5834 5837 5841 5842 5843 5847 5848 5849 5851 5853 5854 5855 5855 5854 5854 5855 5854 5853 5852 5851
5709 5714 5720 5728 5738 5739 5746 5747 5747 5750 5751 5755 5765 5768 5779 5781 5789 5800 5802 5803 5809 5814 5818 5821 5827 5830 5834 5834 5836 5839 5842 5843 5845 5846 5849 5849 5850 5848 5847 5848 5847 5847 5846 5845
5697 5705 5711 5722 5724 5730 5732 5737 5740 5741 5740 5741 5765 5761 5764 5777 5784 5785 5790 5796 5801 5806 5810 5813 5818 5822 5826 5827 5829 5831 5834 5835 5837 5839 5841 5842 5843 5842 5842 5841 5840 5840 5839 5837
5687 5694 5703 5708 5714 5719 5723 5727 5727 5727 5726 5744 5750 5743 5761 5768 5773 5776 5777 5784 5789 5795 5799 5801 5806 5812 5816 5818 5821 5823 5826 5828 5829 5830 5833 5833 5835 5834 5834 5834 5833 5831 5831 5829
5680 5687 5695 5699 5704 5709 5710 5711 5716 5719 5721 5738 5734 5735 5758 5757 5762 5767 5766 5772 5777 5784 5790 5792 5799 5804 5807 5810 5813 5816 5819 5820 5821 5821 5823 5824 5824 5825 5826 5825 5824 5823 5822 5820
5669 5676 5683 5690 5695 5697 5698 5696 5712 5707 5711 5718 5722 5736 5746 5747 5753 5760 5761 5763 5770 5773 5779 5783 5789 5794 5798 5802 5805 5807 5810 5813 5814 5814 5815 5815 5814 5815 5816 5815 5815 5813 5812 5809
5663 5667 5676 5679 5681 5683 5688 5699 5696 5695 5700 5706 5713 5724 5737 5742 5742 5750 5752 5754 5759 5764 5770 5774 5778 5783 5787 5791 5794 5797 5800 5802 5804 5805 5806 5807 5806 5805 5806 5805 5804 5803 5802 5799
5652 5656 5663 5667 5671 5678 5682 5683 5685 5690 5690 5697 5705 5712 5728 5733 5734 5736 5741 5742 5746 5752 5758 5762 5766 5770 5775 5779 5782 5785 5789 5791 5793 5794 5795 5796 5796 5796 5796 5795 5794 5793 5791 5790
5642 5646 5650 5658 5662 5667 5671 5675 5677 5677 5688 5687 5687 5700 5717 5722 5721 5723 5730 5731 5734 5739 5744 5749 5754 5758 5763 5767 5770 5774 5777 5779 5781 5782 5783 5785 5785 5786 5786 5785 5783 5782 5781 5779
5636 5635 5640 5645 5651 5659 5662 5667 5670 5673 5675 5674 5683 5698 5706 5707 5712 5713 5719 5719 5722 5726 5732 5738 5745 5749 5753 5756 5759 5763 5765 5767 5769 5770 5772 5773 5774 5774 5774 5774 5772 5771 5770 5767
5626 5627 5632 5639 5651 5650 5651 5657 5660 5662 5661 5671 5671 5693 5690 5697 5702 5704 5705 5709 5712 5717 5721 5726 5731 5736 5740 5744 5748 5751 5754 5755 5757 5759 5761 5762 5761 5762 5762 5761 5759 5758 5757 5755
5614 5617 5625 5630 5634 5635 5640 5646 5648 5647 5654 5654 5674 5672 5682 5686 5689 5692 5694 5697 5703 5707 5711 5715 5719 5724 5729 5733 5736 5739 5741 5743 5746 5748 5749 5750 5750 5750 5749 5748 5747 5746 5745 5744
5603 5608 5616 5620 5624 5627 5629 5632 5635 5639 5645 5650 5660 5665 5671 5674 5676 5681 5684 5690 5694 5697 5701 5705 5709 5713 5718 5721 5724 5726 5729 5731 5733 5735 5737 5738 5738 5737 5738 5737 5735 5735 5733 5731
5598 5601 5606 5610 5615 5618 5618 5628 5630 5635 5639 5647 5646 5663 5659 5663 5667 5671 5675 5679 5682 5686 5692 5697 5699 5701 5705 5707 5710 5713 5716 5719 5721 5722 5723 5725 5725 5726 5725 5724 5724 5721 5719 5716
5589 5594 5599 5603 5606 5604 5615 5619 5623 5626 5632 5636 5640 5643 5647 5652 5655 5656 5659 5662 5670 5677 5681 5686 5687 5690 5692 5695 5699 5703 5705 5707 5709 5710 5712 5712 5712 5712 5711 5710 5709 5707 5704 5702
5580 5584 5588 5592 5595 5602 5606 5612 5616 5618 5623 5630 5631 5632 5636 5640 5643 5646 5651 5657 5662 5665 5669 5672 5674 5678 5682 5686 5688 5690 5693 5695 5697 5698 5699 5698 5698 5698 5696 5695 5694 5692 5690 5688
5571 5577 5581 5585 5586 5591 5601 5606 5610 5613 5611 5621 5620 5622 5624 5628 5628 5642 5645 5647 5650 5655 5658 5662 5664 5667 5669 5672 5674 5676 5679 5681 5683 5684 5684 5683 5683 5682 5680 5680 5679 5677 5675 5672
5564 5567 5571 5574 5579 5584 5587 5596 5601 5606 5614 5612 5614 5614 5616 5619 5626 5630 5635 5637 5640 5644 5648 5651 5653 5656 5658 5660 5662 5666 5668 5670 5670 5669 5669 5669 5668 5667 5666 5665 5663 5662 5660 5659
5556 5560 5563 5568 5573 5576 5581 5585 5592 5601 5601 5600 5604 5606 5608 5610 5614 5618 5620 5624 5628 5631 5634 5637 5641 5644 5647 5648 5650 5653 5655 5655 5654 5653 5653 5652 5651 5651 5650 5649 5648 5648 5646 5644
5545 5549 5555 5561 5566 5570 5572 5576 5583 5588 5590 5591 5594 5597 5600 5603 5606 5608 5609 5611 5614 5618 5621 5624 5628 5631 5633 5634 5635 5638 5639 5637 5636 5638 5639 5638 5637 5635 5634 5634 5634 5633 5631 5629
5537 5541 5545 5550 5555 5558 5559 5563 5566 5570 5575 5579 5582 5586 5590 5592 5594 5596 5598 5601 5604 5607 5608 5610 5612 5615 5618 5620 5621 5623 5623 5622 5624 5625 5624 5623 5622 5622 5622 5620 5619 5618 5616 5614
5527 5532 5536 5539 5543 5548 5550 5553 5557 5561 5562 5565 5569 5572 5575 5579 5582 5584 5587 5590 5593 5595 5597 5599 5601 5603 5605 5606 5608 5608 5607 5608 5609 5609 5608 5608 5608 5608 5607 5606 5605 5603 5600 5597
5516 5520 5524 5529 5534 5538 5542 5543 5544 5547 5549 5552 5556 5560 5564 5566 5569 5572 5573 5576 5579 5582 5584 5586 5588 5589 5591 5592 5593 5593 5592 5593 5593 5593 5593 5593 5592 5592 5592 5591 5588 5586 5584 5581
Wind_Speed
46 46 47 45 44 45 44 43 44 43 42 43 41 37 33 41 48 47 46 44 40 36 38 39 36 34 33 29 28 27 27 25 24 23 23 22 21 22 21 21 20 20 20 21
47 50 47 43 40 40 45 43 43 42 41 48 46 43 44 44 42 53 51 50 46 43 44 42 39 36 35 33 32 31 30 27 26 26 27 25 23 24 24 24 23 23 24 23
40 42 45 45 45 44 44 42 46 45 43 44 49 50 49 43 47 54 56 54 53 50 48 45 42 39 39 36 34 34 32 30 29 29 28 27 26 25 26 26 24 25 25 26
48 47 43 42 39 42 44 45 46 49 53 47 49 55 52 49 43 44 59 58 56 53 50 48 44 41 39 37 37 36 35 33 31 30 29 28 28 27 28 26 26 26 27 28
47 47 44 39 36 42 43 45 48 51 55 53 50 52 52 51 42 49 56 63 60 57 53 50 47 43 42 40 38 37 37 34 32 31 31 31 30 31 30 28 29 29 30 31
56 51 52 47 48 49 47 48 47 50 53 58 51 54 56 50 49 50 48 67 64 59 55 52 50 46 45 41 40 39 38 36 34 33 33 33 32 33 32 31 32 33 33 34
56 57 53 53 51 51 48 49 50 54 56 53 51 60 56 49 47 53 54 61 68 63 59 56 53 49 48 45 45 43 41 39 37 35 36 35 35 35 34 34 34 36 37 38
55 56 54 53 53 50 57 61 58 55 53 47 51 55 54 57 49 41 46 59 67 64 61 57 53 52 51 48 46 44 43 42 40 38 38 38 37 38 37 37 38 39 40 41
57 57 57 59 60 61 60 61 55 62 60 54 55 47 47 58 52 50 44 56 64 60 58 56 53 52 53 51 48 47 47 45 42 41 40 40 40 40 41 41 42 43 43 44
55 56 53 54 58 57 60 55 58 60 61 58 56 52 46 56 53 49 46 50 59 59 54 54 53 50 50 50 50 50 50 48 45 44 42 43 42 43 44 45 45 45 46 45
58 58 55 54 57 57 56 57 62 63 60 58 55 52 46 56 54 53 48 49 53 54 51 53 53 48 50 50 48 49 50 49 46 46 45 46 46 46 46 47 47 47 47 47
53 58 57 55 52 51 50 48 48 61 64 64 63 53 51 57 56 55 47 47 51 53 55 54 50 48 50 50 48 48 50 50 48 47 48 49 47 47 48 48 47 48 48 48
49 52 55 56 55 54 55 52 55 54 61 62 61 50 51 50 47 43 38 48 46 43 48 46 46 48 51 49 49 49 49 48 48 47 48 47 46 46 48 49 48 49 48 46
48 48 51 52 50 50 51 54 54 56 64 61 62 50 59 48 43 37 39 36 36 38 42 45 47 46 45 46 47 46 46 47 47 46 47 47 47 47 49 50 48 46 44 46
49 49 48 47 46 48 46 47 51 59 60 57 51 57 57 47 35 35 39 33 36 34 35 40 43 43 43 43 44 45 45 45 46 46 49 48 49 49 51 49 44 45 46 50
50 48 46 49 47 47 46 43 43 50 49 53 53 53 47 44 36 36 39 33 33 34 34 37 38 40 41 43 45 46 46 47 47 47 47 49 50 50 47 45 47 49 52 55
49 49 47 48 46 48 49 36 37 41 44 37 39 31 42 44 38 36 33 38 41 38 36 34 36 40 44 45 46 47 47 47 48 49 49 49 47 46 47 52 55 56 57 57
47 46 46 47 50 50 38 39 35 40 42 41 38 40 43 41 40 47 44 47 46 44 43 42 42 43 41 41 43 45 47 49 48 48 47 47 49 51 54 57 59 57 58 59
48 49 48 49 50 45 39 36 34 34 34 34 38 42 42 41 44 44 54 49 47 46 47 47 50 49 47 47 47 48 49 48 47 51 54 54 56 60 61 60 58 60 59 60
44 48 50 51 49 47 42 38 33 36 35 31 38 39 40 44 49 39 42 46 45 44 47 48 52 54 55 56 58 59 59 59 59 57 59 62 63 63 64 61 62 58 58 59
46 47 50 52 52 48 47 42 38 37 26 24 31 38 39 40 35 35 41 44 44 45 46 49 50 51 51 52 54 55 57 57 57 61 67 70 73 65 65 59 56 57 59 57
45 44 48 46 46 45 46 45 43 38 40 42 40 37 32 24 31 34 38 41 49 56 56 56 56 57 56 58 59 59 60 62 67 62 56 55 56 57 57 58 59 59 60 64
52 52 50 49 43 43 44 43 40 37 38 39 38 39 41 39 40 39 36 36 42 47 50 51 52 51 53 57 57 57 58 55 54 54 55 56 58 59 60 60 60 62 63 63
45 46 53 54 51 52 50 49 49 50 44 41 42 42 42 43 43 41 39 39 40 41 43 46 46 47 47 46 46 45 48 53 56 57 57 59 60 59 58 58 60 63 63 57
42 41 41 47 52 53 53 51 50 49 47 43 45 48 48 47 47 47 46 46 46 44 45 43 46 48 49 48 47 47 49 51 54 57 59 58 55 58 60 62 63 57 55 56
42 43 43 43 44 46 46 48 51 51 51 48 48 49 48 48 48 47 49 49 49 50 48 49 45 47 53 56 55 51 50 50 52 53 55 58 60 60 59 56 53 55 59 62
Wind_Direction
237 238 242 246 248 248 247 245 243 240 232 241 246 243 240 229 236 236 229 226 222 220 221 223 223 227 233 233 238 241 249 251 258 260 260 262 264 270 275 277 281 280 282 286
236 242 240 242 243 249 251 246 245 242 238 243 242 241 237 241 245 232 230 228 224 222 227 226 227 229 234 236 239 245 248 254 254 259 260 264 267 273 274 276 279 282 284 285
236 239 242 241 246 250 250 251 250 252 250 242 242 243 245 239 247 233 228 229 229 224 226 229 228 229 233 237 242 245 245 246 249 254 260 263 265 266 269 274 278 280 283 286
223 224 228 235 238 237 240 246 244 249 251 249 245 243 243 244 248 244 230 232 231 232 231 233 233 235 237 238 240 244 247 248 251 254 258 260 261 262 265 270 274 278 280 283
229 223 230 229 230 229 229 233 238 241 245 246 247 250 242 247 250 246 238 235 233 234 234 236 237 237 238 239 241 244 248 249 250 250 256 258 262 265 267 272 275 278 280 282
222 224 226 223 224 227 232 229 239 241 247 249 254 254 244 245 258 256 254 236 236 235 236 237 239 239 239 240 243 245 249 251 252 252 254 258 260 265 268 272 276 279 280 282
223 222 220 220 223 225 226 229 235 244 244 255 256 254 254 253 262 252 252 236 236 233 235 235 236 236 238 238 241 242 245 249 254 256 258 261 263 266 270 274 277 280 282 284
227 229 228 228 226 225 234 234 237 243 253 261 258 259 255 258 261 256 257 237 232 236 236 239 240 239 239 240 242 246 248 250 252 255 259 262 265 270 273 276 277 277 280 282
228 227 228 231 236 236 233 232 241 243 244 248 252 259 255 258 261 263 265 244 234 236 237 241 241 241 243 244 245 247 250 252 254 255 257 262 265 270 273 275 276 278 279 280
235 237 237 238 239 242 243 245 243 241 240 245 252 258 261 257 258 255 255 246 238 240 239 242 245 245 244 245 246 248 251 252 255 257 259 263 266 269 272 272 274 275 277 278
236 237 239 238 239 242 244 246 246 244 242 245 250 253 257 254 252 252 258 249 242 238 241 242 241 244 245 245 246 248 250 252 255 258 260 263 265 266 268 270 272 274 275 277
240 239 239 243 242 243 245 249 252 249 252 251 243 246 252 250 252 252 255 249 245 242 241 241 241 242 247 248 247 249 250 252 255 257 259 262 263 265 267 268 268 270 272 275
243 236 238 239 241 243 245 247 252 260 248 246 249 246 245 247 255 262 262 243 240 245 242 244 243 245 247 249 250 250 252 254 255 256 258 259 260 262 264 266 267 270 272 274
239 241 242 245 251 250 250 245 246 251 245 247 247 248 245 239 244 254 247 237 237 236 237 239 242 245 245 245 247 249 251 252 254 254 257 259 260 262 265 266 268 270 271 274
238 239 242 245 245 247 244 245 249 243 241 242 247 245 242 245 246 240 238 239 233 232 231 231 234 238 240 241 243 244 246 248 251 253 255 256 259 261 263 264 265 267 275 278
233 238 241 245 245 247 247 246 241 237 243 247 248 245 250 250 237 228 238 228 230 226 227 227 229 233 238 240 242 243 245 246 248 250 253 257 259 260 262 261 264 271 278 280
237 240 238 238 243 243 244 244 248 245 240 243 246 242 251 251 237 224 227 229 227 225 222 225 229 232 236 239 241 243 244 248 250 251 252 255 258 261 260 263 267 275 287 289
229 236 242 248 248 245 242 244 245 244 242 244 244 240 251 251 239 223 224 225 231 228 223 229 234 235 236 237 240 245 247 248 249 252 256 259 260 262 265 269 277 286 286 286
228 227 232 242 250 250 246 245 241 243 239 244 248 252 256 254 249 233 230 236 236 232 230 236 239 238 239 241 243 244 246 249 253 258 260 261 263 270 273 279 282 281 282 283
228 230 233 235 238 240 237 243 243 254 244 242 247 248 251 253 251 244 238 240 241 239 237 240 243 241 242 241 240 243 246 250 254 256 260 263 266 275 278 277 280 279 278 278
233 232 233 236 237 238 243 244 248 241 254 248 252 255 259 256 261 258 244 239 239 239 242 243 245 249 252 251 250 252 253 253 257 260 264 268 268 270 274 276 275 275 276 276
235 236 236 238 242 244 245 248 246 250 254 259 256 258 263 258 254 259 257 251 243 238 237 239 244 248 249 253 256 258 259 259 263 266 267 269 270 270 271 272 273 273 273 278
235 236 239 240 244 251 255 259 257 254 254 255 256 254 255 256 257 259 259 256 249 249 252 250 250 254 255 256 259 261 264 261 260 262 268 269 271 272 274 276 275 273 274 277
236 236 239 244 245 243 246 251 254 251 247 250 250 248 246 248 250 249 249 251 251 253 252 255 257 258 258 257 257 259 261 261 263 265 266 268 269 272 273 270 271 273 273 274
229 234 233 236 240 243 247 252 254 258 260 256 253 253 251 250 250 252 253 255 255 254 251 252 257 256 254 256 263 261 261 262 263 264 265 268 269 270 266 268 269 270 280 286
238 241 246 245 247 248 248 250 254 255 256 255 254 256 258 259 259 259 258 260 262 258 258 259 258 257 256 258 262 263 262 263 264 265 265 264 263 264 266 269 278 284 285 286